Flag for Canada Weather past 2 weeks in Stonewall, Manitoba, Canada

Now
45 °F

Mostly cloudy.


Feels Like: 36 °F
Forecast: 37 / 51 °F
Wind: 22 mph from North

Location: Winnipeg Int. Airportman.

Current Time: May 29, 2015 at 3:57:17 AM

Latest Report: May 29, 2015 at 3:00 AM


Visibility: 15 mi

Pressure: 30.05 "Hg

Humidity: 87%

Dew point: 41 °F

Location of StonewallLocation

Historic Weather in Stonewall — Graph

°F

Stonewall temperature yesterday

Maximum temperature yesterday: 64 °F (at 3:00 PM)
Minimum temperature yesterday: 50 °F (at 1:00 AM)
Average temperature yesterday: 57 °F

Past Weeks' High & Low Weather Summary

 TemperatureHumidityPressure
High84 °F (May 26, 3:00 PM)100% (May 14, 8:00 AM)30.46 "Hg (May 14, 8:00 AM)
Low30 °F (May 18, 5:00 AM)18% (May 22, 4:00 PM)29.72 "Hg (May 26, 5:00 PM)
Average56 °F62%30.02 "Hg
* Reported May 14 2:00 AM — May 29 2:00 AM, Stonewall, Weather by CustomWeather, © 2015

Note: Actual official high and low records may vary slightly from our data, if they occured in-between our weather recording intervals... More about our weather records

Advertising

Stonewall weather history for previous 24 hours

 ConditionsComfort  
Time TempWeatherWind HumidityBarometerVisibility
2:00 AM
Fri, May 29
46 °FMostly cloudy.22 mph87%30.03 "Hg15 mi
1:00 AM48 °FMostly cloudy.22 mph87%30.01 "Hg15 mi
12:00 AM50 °FMostly cloudy.17 mph82%29.99 "Hg15 mi
11:00 PM
Thu, May 28
54 °FOvercast.22 mph82%29.95 "Hg15 mi
10:00 PM55 °FPartly sunny.7 mph100%29.91 "Hg15 mi
9:00 PM57 °FMostly cloudy.9 mph94%29.89 "Hg15 mi
8:00 PM59 °FOvercast.13 mph94%29.88 "Hg15 mi
7:00 PM59 °FMostly cloudy.10 mph94%29.84 "Hg10 mi
6:00 PM59 °FLight rain. Fog.15 mph94%29.84 "Hg6 mi
5:00 PM63 °FMostly cloudy.14 mph88%29.83 "Hg10 mi
4:54 PM63 °FMostly cloudy.13 mph88%29.83 "Hg12 mi
4:00 PM64 °FMostly cloudy.7 mph83%29.85 "Hg12 mi
3:00 PM64 °FPartly sunny.No wind88%29.86 "Hg12 mi
2:00 PM61 °FMostly cloudy.6 mph94%29.88 "Hg12 mi
1:00 PM59 °FLow clouds.3 mph94%29.89 "Hg10 mi
12:47 PM59 °FMostly cloudy.5 mph94%29.90 "Hg10 mi
12:00 PM57 °FSprinkles. Fog.7 mph94%29.90 "Hg5 mi
11:00 AM55 °FSprinkles. Mostly cloudy.5 mph94%29.92 "Hg10 mi
10:00 AM55 °FSprinkles. Mostly cloudy.6 mph94%29.93 "Hg10 mi
9:00 AM55 °FSprinkles. Mostly cloudy.6 mph94%29.95 "Hg10 mi
8:00 AM54 °FSprinkles. Overcast.6 mph94%29.97 "Hg6 mi
7:00 AM54 °FSprinkles. Overcast.7 mph88%29.99 "Hg6 mi
6:00 AM55 °FSprinkles. Overcast.7 mph77%29.99 "Hg15 mi
5:00 AM52 °FMostly cloudy.6 mph77%29.98 "Hg15 mi
4:00 AM52 °FMostly cloudy.3 mph72%30.01 "Hg15 mi
3:00 AM50 °FOvercast.5 mph76%30.01 "Hg15 mi
Weather by CustomWeather, © 2015

See weather overviewHow to use our weather pages